Regional Weather Roundup
Issued by NWS

Home | Current Version | Previous Version | Graphics & Text | Print | Product List | Glossary On
Versions: 1 2 3 4 5 6 7 8 9 10 11 12 13 14 15 16 17 18 19 20 21 22 23 24 25 26 27 28 29 30 31 32 33 34 35 36 37 38 39 40 41 42 43 44 45 46 47 48 49 50
624
ASUS45 KCYS 241310
RWRWY

WYOMING REGIONAL WEATHER ROUNDUP
NATIONAL WEATHER SERVICE CHEYENNE WY
700 AM MDT WED AUG 24 2016

NOTE:  "FAIR" INDICATES FEW OR NO CLOUDS BELOW 12,000 FEET
WITH NO SIGNIFICANT WEATHER AND/OR OBSTRUCTIONS TO VISIBILITY.

WYZ001-241400-
YELLOWSTONE NATIONAL PARK

CITY           SKY/WX    TMP DP  RH WIND       PRES   REMARKS
LK YELLOWSTONE   N/A     30  24  78 CALM      30.34S
W YELLOWSTONE  NOT AVBL

$$
WYZ002>013-054>058-071-098>099-241400-
NORTHERN WYOMING

CITY           SKY/WX    TMP DP  RH WIND       PRES   REMARKS
JACKSON        CLEAR     34  21  60 N8        30.27S SMOKE   WCI  27
CODY           FAIR      48  37  66 CALM      30.29R
GREYBULL       FAIR      51  39  63 E7        30.21R
WORLAND        FAIR      50  40  68 SW7       30.24R
SHERIDAN       FAIR      51  41  68 NW12      30.26R
BUFFALO        FAIR      50  38  63 NW9       30.27R
GILLETTE       FAIR      49  43  80 NW8       30.24R
HULETT         FAIR      52  43  71 W5        30.24S
NEWCASTLE      FAIR      50  36  57 NW6       30.22R

$$
WYZ014>020-022>026-101>103-241400-
CENTRAL WYOMING

CITY           SKY/WX    TMP DP  RH WIND       PRES   REMARKS
BIG PINEY      FAIR      31  16  54 E7        30.29R WCI  24
PINEDALE       FAIR      30  21  69 W7        30.30S WCI  23
DUBOIS         FAIR      34  18  51 NW8       30.31R WCI  27
LANDER         FAIR      49  26  41 SE5       30.26R
RIVERTON       FAIR      50  35  56 NE6       30.27R
CASPER         FAIR      44  31  60 E6        30.28R
DOUGLAS        FAIR      47  33  58 CALM      30.26R

$$
WYZ021-027>030-104>119-241400-
SOUTHERN WYOMING

CITY           SKY/WX    TMP DP  RH WIND       PRES   REMARKS
EVANSTON       FAIR      46  22  38 SW7       30.27R
FORT BRIDGER   FAIR      42  19  40 CALM      30.29R
ROCK SPRINGS   FAIR      45  23  42 E7        30.26R
DIXON          FAIR      43  37  80 CALM      30.28R
RAWLINS        FAIR      45  23  42 NW8       30.27R
SARATOGA       FAIR      46  32  57 W10       30.29R
LARAMIE        CLOUDY    54  31  41 N8        30.28R
CHEYENNE       LGT RAIN  55  45  68 SE12      30.25R
TORRINGTON     FAIR      60  34  37 NE12      30.17R
PINE BLUFFS    CLOUDY    61  37  41 CALM      30.19S

$$




USA.gov is the U.S. government's official web portal to all federal, state and local government web resources and services.